Terug naar catalogus

HJ-1B

ActiefWetenschapSSO
NORAD 33321·PAYLOAD·🇨🇳 China

Gelanceerd Sep 6, 2008 vanaf Taiyuan Satellite Launch Center

Loading…

Volgende Passages (komende 24 uur)

TLE

VersSource: Space-Track

Epoch: Sep 14, 2026, 15:32 UTC

1 33321U 08041B   26257.64742370  .00000327  00000-0  45816-4 0  9990
2 33321  97.6610 242.9767 0034662 249.4581 110.2913 14.83459098971672

Volg HJ-1B in realtime met AllMySat

Download on the App Store